Weather History for KSPD - August, 2013

Change the Weather History Date:

Friday, August 2, 2013

  Actual Average Record
Temperature  
Mean Temperature 81 °F -  
Max Temperature 95 °F 90 °F 102 °F (2008)
Min Temperature 67 °F 62 °F 57 °F (2000)
Degree Days  
Heating Degree Days 0 0  
Month to date heating degree days 0 0  
Since 1 June heating degree days 19 23  
Since 1 July heating degree days 0 2  
Cooling Degree Days 16 11  
Month to date cooling degree days 28 22  
Year to date cooling degree days 855 633  
Since 1 June cooling degree days 738 579  
Growing Degree Days 30 (Base 50)    
Moisture  
Dew Point 58 °F    
Average Humidity 55    
Maximum Humidity 87    
Minimum Humidity 23    
Precipitation  
Precipitation 0.00 in 0.10 in 0.40 in (2007)
Month to date precipitation 0.01 0.20  
Year to date precipitation 7.46 11.10  
Sea Level Pressure  
Sea Level Pressure 29.76 in    
Wind  
Wind Speed 9 mph (NNW)    
Max Wind Speed 17 mph    
Max Gust Speed 23 mph    
T = Trace of Precipitation, MM = Missing Value Source: NWS Daily Summary

Daily Weather History Graph

Daily Weather History Graph

Search for Another Location

Airport or City:

Trip Planner

Search our weather history database for the weather conditions in past years. The results will help you decide how hot, cold, wet, or windy it might be!

Date:

Astronomy

Aug. 02, 2013 Rise Set
Actual Time 5:56 AM MDT 7:56 PM MDT
Civil Twilight 5:27 AM MDT 8:25 PM MDT
Nautical Twilight 4:52 AM MDT 9:00 PM MDT
Astronomical Twilight 4:14 AM MDT 9:37 PM MDT
Moon 2:19 AM MDT (8/2) 4:55 PM MDT (8/2)
Length of Visible Light 14h 58m
Length of Day
14h 00m
Waning Crescent, 15% of the Moon is Illuminated
Aug 2
Waning Crescent
Aug 6
New
Aug 14
First Quarter
Aug 20
Full
Aug 28
Last Quarter

Hourly Weather History & Observations

Time (MDT) Temp. Heat Index Dew Point Humidity Pressure Visibility Wind Dir Wind Speed Gust Speed Precip Events Conditions
12:56 AM 70.0 °F - 62.1 °F 76% 29.78 in - SW 9.2 mph - N/A   Unknown
1:56 AM 68.0 °F - 64.0 °F 87% 29.78 in - SSW 5.8 mph - N/A   Unknown
2:56 AM 69.1 °F - 63.0 °F 81% 29.76 in - West 5.8 mph - N/A   Unknown
3:56 AM 68.0 °F - 62.1 °F 81% 29.77 in - WSW 6.9 mph - N/A   Unknown
4:56 AM 68.0 °F - 61.0 °F 78% 29.76 in - SW 5.8 mph - N/A   Unknown
5:56 AM 68.0 °F - 61.0 °F 78% 29.77 in - West 4.6 mph - N/A   Unknown
6:56 AM 71.1 °F - 60.1 °F 68% 29.76 in - SW 8.1 mph - N/A   Unknown
7:56 AM 75.0 °F - 57.9 °F 55% 29.76 in - WSW 10.4 mph - N/A   Unknown
8:56 AM 81.0 °F 81.1 °F 57.9 °F 45% 29.76 in - West 8.1 mph - N/A   Unknown
9:56 AM 86.0 °F 84.5 °F 55.0 °F 35% 29.75 in - NW 13.8 mph - N/A   Unknown
10:56 AM 88.0 °F 85.9 °F 54.0 °F 31% 29.75 in - North 12.7 mph - N/A   Unknown
11:56 AM 90.0 °F 87.5 °F 53.1 °F 28% 29.75 in - North 9.2 mph - N/A   Unknown
12:56 PM 91.0 °F 88.7 °F 54.0 °F 28% 29.74 in - NNE 16.1 mph 20.7 mph N/A   Unknown
1:56 PM 93.0 °F 90.6 °F 53.1 °F 26% 29.74 in - NNE 12.7 mph - N/A   Unknown
2:56 PM 93.9 °F - 51.1 °F 23% 29.73 in - North 12.7 mph 20.7 mph N/A   Unknown
3:56 PM 93.9 °F - 50.0 °F 22% 29.73 in - NNE 16.1 mph 19.6 mph N/A   Unknown
4:56 PM 93.9 °F 91.4 °F 53.1 °F 25% 29.73 in - NNW 11.5 mph - N/A   Unknown
5:56 PM 91.9 °F 89.5 °F 53.1 °F 27% 29.73 in - NNE 8.1 mph - N/A   Unknown
6:56 PM 89.1 °F 86.9 °F 54.0 °F 30% 29.74 in - NNE 5.8 mph - N/A   Unknown
7:56 PM 82.0 °F 82.4 °F 60.1 °F 47% 29.77 in - NE 4.6 mph - N/A   Unknown
8:56 PM 79.0 °F - 60.1 °F 52% 29.80 in - ENE 4.6 mph - N/A   Unknown
9:56 PM 78.1 °F - 62.1 °F 58% 29.81 in - East 9.2 mph - N/A   Unknown
10:56 PM 75.0 °F - 64.9 °F 71% 29.81 in - ENE 6.9 mph - N/A   Unknown
11:56 PM 72.0 °F - 66.0 °F 81% 29.84 in - NE 6.9 mph - N/A   Unknown